{"data":{"norad_id":62820,"epoch":"2026-09-21T20:26:16.363392Z","epoch_age_seconds":51410,"freshness":"FRESH","line1":"1 62820U 25018Q   26264.85157828  .00008071  00000+0  27144-3 0  9994","line2":"2 62820  53.1598 116.8802 0001439 100.9423 259.1741 15.31715392 93225","mean_motion":15.31715392,"eccentricity":0.0001439,"inclination_deg":53.1598,"raan_deg":116.8802,"arg_perigee_deg":100.9423,"mean_anomaly_deg":259.1741,"bstar":0.00027144,"rev_number":9322,"period_min":94.012243235328,"perigee_km":469.70856606167,"apogee_km":471.67965965595,"semimajor_km":6848.8311128588,"source":"CELESTRAK","updated_at":"2026-09-22T09:00:49.669418Z"}}